FW2254 Weather Reports


Display with metric or nautical units.
time (UTC)temp
F
wind
direction
speed
MPH
gust
MPH
rain 1hr
in
rain 24hr
in
rain mn
in
humidity
%
barometer
mb
20260906074539 75 28 0.0 0.0 0.00 0.03 0.00 96 1010.0
20260906073038 75 28 0.0 0.0 0.00 0.03 0.00 96 1010.0
20260906071537 75 28 0.0 0.0 0.00 0.03 0.00 96 1010.0
20260906070036 75 28 0.0 0.0 0.00 0.03 0.00 96 1010.0
20260906064533 75 28 0.0 0.0 0.00 0.03 0.00 96 1009.8
20260906063032 75 28 0.0 0.0 0.00 0.03 0.00 96 1009.8
20260906061530 75 28 0.0 0.0 0.00 0.03 0.00 96 1009.9
20260906060030 75 28 0.0 0.0 0.00 0.03 0.00 96 1010.0
20260906054526 75 28 0.0 0.0 0.00 0.03 0.00 95 1009.9
20260906053025 76 28 0.0 0.0 0.00 0.03 0.00 95 1009.8
20260906051523 76 28 0.0 0.0 0.00 0.03 0.00 95 1009.9
20260906050023 76 28 0.0 0.0 0.00 0.03 0.00 95 1010.1
20260906044519 76 28 0.0 0.0 0.00 0.03 0.00 95 1010.0
20260906043027 76 28 0.0 0.0 0.00 0.03 0.00 95 1010.0
20260906041516 76 28 0.0 0.0 0.00 0.03 0.00 95 1009.9
20260906040015 76 28 0.0 0.0 0.00 0.03 0.03 95 1009.6
20260906034520 77 28 0.0 0.0 0.00 0.03 0.03 95 1009.8
20260906033011 77 28 0.0 0.0 0.00 0.03 0.03 94 1009.7
20260906031515 77 28 0.0 0.0 0.00 0.03 0.03 94 1009.7
20260906030010 77 28 0.0 0.0 0.00 0.03 0.03 94 1010.0
20260906024508 77 28 0.0 0.0 0.00 0.03 0.03 94 1010.3
20260906023007 78 28 0.0 0.0 0.00 0.03 0.03 93 1010.0
20260906021508 78 28 0.0 0.0 0.00 0.03 0.03 93 1010.2
20260906020008 78 28 0.0 0.0 0.00 0.03 0.03 93 1010.1
20260906014506 78 28 0.0 0.0 0.00 0.03 0.03 93 1009.8
20260906013005 79 28 0.0 0.0 0.00 0.03 0.03 92 1009.7
20260906011504 79 28 0.0 2.0 0.00 0.03 0.03 92 1010.0
20260906010004 80 28 0.0 3.0 0.00 0.03 0.03 91 1009.3
20260906004534 80 28 0.0 1.0 0.00 0.03 0.03 90 1009.2
20260906003033 80 28 0.0 1.0 0.00 0.03 0.03 89 1009.3
20260906001546 81 28 0.0 0.0 0.00 0.03 0.03 90 1009.5
20260906000029 81 28 0.0 0.0 0.00 0.03 0.03 90 1009.3
20260905234529 82 28 0.0 0.0 0.00 0.03 0.03 91 1009.4
20260905233027 81 28 0.0 0.0 0.00 0.03 0.03 91 1009.2
20260905231528 81 28 0.0 0.0 0.00 0.03 0.03 91 1009.2
20260905230026 81 28 0.0 0.0 0.00 0.03 0.03 92 1009.1
20260905224525 81 28 0.0 0.0 0.00 0.03 0.03 91 1008.9
20260905223040 81 28 0.0 1.0 0.00 0.03 0.03 92 1009.0
20260905221523 81 28 0.0 0.0 0.00 0.03 0.03 93 1009.2
20260905220021 80 28 0.0 2.0 0.00 0.03 0.03 93 1009.1
20260905214520 80 28 0.0 1.0 0.00 0.03 0.03 93 1009.1
20260905213020 81 28 0.0 1.0 0.00 0.03 0.03 91 1009.6
20260905211522 82 28 0.0 1.0 0.00 0.03 0.03 86 1010.0
20260905210021 85 28 0.0 4.0 0.00 0.03 0.03 81 1009.2
20260905204517 87 28 0.0 3.0 0.00 0.03 0.03 79 1008.8
20260905203017 89 28 0.0 0.0 0.00 0.03 0.03 83 1009.1
20260905201523 88 28 0.0 0.0 0.00 0.03 0.03 92 1008.9
20260905200012 86 28 0.0 0.0 0.01 0.03 0.03 92 1009.1
20260905194509 85 28 0.0 0.0 0.02 0.03 0.03 92 1009.4
20260905193016 84 28 0.0 0.0 0.03 0.03 0.03 93 1009.6
20260905191505 84 28 0.0 0.0 0.03 0.03 0.03 92 1009.8
20260905184608 87 28 0.0 2.0 0.01 0.01 0.01 81 1010.4
20260905183059 93 28 0.0 2.0 0.00 0.00 0.00 61 1010.6
20260905181600 94 28 0.0 0.0 0.00 0.00 0.00 59 1010.5
20260905180057 93 28 0.0 2.0 0.00 0.00 0.00 61 1010.7
20260905174555 93 28 0.0 1.0 0.00 0.00 0.00 60 1010.9
20260905173055 94 28 0.0 1.0 0.00 0.00 0.00 59 1011.2
20260905171554 98 28 0.0 1.0 0.00 0.00 0.00 56 1011.3
20260905170049 96 28 0.0 3.0 0.00 0.00 0.00 58 1011.5
20260905164548 95 28 0.0 4.0 0.00 0.00 0.00 60 1011.6
20260905163043 92 28 0.0 0.0 0.00 0.00 0.00 64 1011.7
20260905161539 91 28 0.0 0.0 0.00 0.00 0.00 67 1011.9
20260905160033 90 28 0.0 0.0 0.00 0.00 0.00 68 1012.1
20260905154531 89 28 0.0 2.0 0.00 0.00 0.00 69 1012.2
20260905153033 89 28 0.0 2.0 0.00 0.00 0.00 71 1012.1
20260905151525 88 28 0.0 1.0 0.00 0.00 0.00 74 1012.0
20260905150023 87 28 0.0 2.0 0.00 0.00 0.00 76 1011.7
20260905144516 85 28 0.0 1.0 0.00 0.00 0.00 78 1011.7
20260905143018 85 28 0.0 0.0 0.00 0.00 0.00 79 1011.8
20260905141513 84 28 0.0 2.0 0.00 0.00 0.00 82 1011.6
20260905140039 82 28 0.0 1.0 0.00 0.00 0.00 84 1011.7
20260905134539 81 28 0.0 0.0 0.00 0.00 0.00 87 1011.9
20260905133002 80 28 0.0 0.0 0.00 0.00 0.00 89 1011.8
20260905131502 78 28 0.0 0.0 0.00 0.00 0.00 93 1011.7
20260905130032 77 28 0.0 0.0 0.00 0.00 0.00 94 1011.7
20260905124533 76 28 0.0 0.0 0.00 0.00 0.00 94 1011.5
20260905123053 76 28 0.0 0.0 0.00 0.00 0.00 94 1011.4
20260905121525 76 28 0.0 0.0 0.00 0.00 0.00 94 1011.3
20260905120029 76 28 0.0 0.0 0.00 0.00 0.00 94 1011.1
20260905114524 76 28 0.0 0.0 0.00 0.00 0.00 94 1011.2
20260905113026 76 28 0.0 0.0 0.00 0.00 0.00 94 1011.1
20260905111523 76 28 0.0 0.0 0.00 0.00 0.00 93 1010.8
20260905110018 76 28 0.0 0.0 0.00 0.00 0.00 93 1010.8
20260905104517 76 28 0.0 0.0 0.00 0.00 0.00 93 1010.9
20260905103016 76 28 0.0 0.0 0.00 0.00 0.00 92 1010.8
20260905101514 77 28 0.0 0.0 0.00 0.00 0.00 93 1010.7
20260905100012 77 28 0.0 0.0 0.00 0.00 0.00 92 1010.8
20260905094511 77 28 0.0 0.0 0.00 0.00 0.00 92 1010.8
20260905093007 77 28 0.0 0.0 0.00 0.00 0.00 92 1010.7
20260905091506 77 28 0.0 0.0 0.00 0.00 0.00 91 1010.7
20260905090005 77 28 0.0 0.0 0.00 0.00 0.00 90 1010.5
20260905084504 77 28 0.0 0.0 0.00 0.00 0.00 90 1010.4
20260905083001 77 28 0.0 0.0 0.00 0.00 0.00 89 1010.3
20260905081601 78 28 0.0 0.0 0.00 0.00 0.00 89 1010.2
20260905080139 78 28 0.0 0.0 0.00 0.00 0.00 89 1010.5